GW3643 Weather Reports


Display with metric or nautical units.
time (UTC)temp
F
wind
direction
speed
MPH
gust
MPH
rain 1hr
in
rain 24hr
in
rain mn
in
humidity
%
barometer
mb
20260904133100 98 166 3.0 9.0 0.00 0.00 0.00 13 1022.3
20260904132544 98 200 1.0 7.0 0.00 0.00 0.00 13 1022.3
20260904132046 97 11 1.0 7.0 0.00 0.00 0.00 13 1022.4
20260904131631 98 257 3.0 7.0 0.00 0.00 0.00 13 1022.4
20260904131045 97 120 1.0 8.0 0.00 0.00 0.00 13 1022.4
20260904130545 97 194 3.0 8.0 0.00 0.00 0.00 13 1022.5
20260904130054 97 216 2.0 9.0 0.00 0.00 0.00 13 1022.5
20260904125544 96 220 4.0 9.0 0.00 0.00 0.00 14 1022.7
20260904125044 96 118 1.0 7.0 0.00 0.00 0.00 14 1022.7
20260904124558 95 176 1.0 7.0 0.00 0.00 0.00 15 1022.8
20260904124043 94 194 4.0 7.0 0.00 0.00 0.00 15 1022.8
20260904123544 95 232 1.0 8.0 0.00 0.00 0.00 14 1022.9
20260904123107 94 209 1.0 8.0 0.00 0.00 0.00 15 1022.9
20260904122543 96 194 2.0 7.0 0.00 0.00 0.00 14 1022.9
20260904122043 94 216 2.0 7.0 0.00 0.00 0.00 15 1023.0
20260904121557 95 188 2.0 8.0 0.00 0.00 0.00 14 1023.1
20260904121045 94 215 3.0 8.0 0.00 0.00 0.00 15 1023.2
20260904120545 95 208 3.0 8.0 0.00 0.00 0.00 15 1023.2
20260904120057 94 204 4.0 7.0 0.00 0.00 0.00 15 1023.3
20260904115543 94 209 2.0 7.0 0.00 0.00 0.00 14 1023.4
20260904115044 94 221 1.0 4.0 0.00 0.00 0.00 14 1023.4
20260904114601 94 122 1.0 7.0 0.00 0.00 0.00 14 1023.5
20260904114044 94 166 2.0 7.0 0.00 0.00 0.00 14 1023.4
20260904113544 96 174 0.0 5.0 0.00 0.00 0.00 14 1023.5
20260904113057 95 209 1.0 5.0 0.00 0.00 0.00 14 1023.6
20260904112545 94 186 1.0 5.0 0.00 0.00 0.00 15 1023.6
20260904112043 95 188 1.0 4.0 0.00 0.00 0.00 15 1023.7
20260904111557 93 0 1.0 5.0 0.00 0.00 0.00 15 1023.8
20260904111043 94 0 0.0 5.0 0.00 0.00 0.00 15 1023.8
20260904110543 94 220 1.0 5.0 0.00 0.00 0.00 15 1023.9
20260904110055 94 0 2.0 5.0 0.00 0.00 0.00 16 1024.0
20260904105543 95 215 0.0 5.0 0.00 0.00 0.00 16 1024.0
20260904105044 95 0 0.0 5.0 0.00 0.00 0.00 16 1024.0
20260904104611 93 238 1.0 5.0 0.00 0.00 0.00 16 1024.1
20260904104043 92 204 1.0 6.0 0.00 0.00 0.00 17 1024.2
20260904103543 91 188 0.0 6.0 0.00 0.00 0.00 17 1024.1
20260904103105 90 187 2.0 6.0 0.00 0.00 0.00 18 1024.2
20260904102546 90 18 0.0 3.0 0.00 0.00 0.00 18 1024.3
20260904102043 91 194 1.0 3.0 0.00 0.00 0.00 16 1024.3
20260904101603 91 0 0.0 3.0 0.00 0.00 0.00 17 1024.4
20260904101044 90 0 0.0 3.0 0.00 0.00 0.00 17 1024.4
20260904100548 90 337 1.0 3.0 0.00 0.00 0.00 17 1024.5
20260904100053 91 4 1.0 3.0 0.00 0.00 0.00 16 1024.6
20260904095546 92 31 0.0 2.0 0.00 0.00 0.00 16 1024.5
20260904095045 90 0 0.0 2.0 0.00 0.00 0.00 17 1024.5
20260904094558 87 0 0.0 2.0 0.00 0.00 0.00 19 1024.4
20260904094043 88 0 0.0 3.0 0.00 0.00 0.00 19 1024.3
20260904093544 88 0 0.0 3.0 0.00 0.00 0.00 20 1024.4
20260904093054 87 12 1.0 3.0 0.00 0.00 0.00 20 1024.4
20260904092543 89 333 0.0 3.0 0.00 0.00 0.00 20 1024.4
20260904092045 88 333 1.0 3.0 0.00 0.00 0.00 20 1024.4
20260904091601 87 295 1.0 3.0 0.00 0.00 0.00 21 1024.4
20260904091044 87 0 0.0 3.0 0.00 0.00 0.00 20 1024.5
20260904090543 85 0 1.0 4.0 0.00 0.00 0.00 20 1024.4
20260904090059 85 2 1.0 4.0 0.00 0.00 0.00 21 1024.3
20260904085543 85 358 1.0 3.0 0.00 0.00 0.00 21 1024.3
20260904085045 83 0 0.0 3.0 0.00 0.00 0.00 21 1024.3
20260904084559 83 131 0.0 3.0 0.00 0.00 0.00 21 1024.3
20260904084042 84 132 0.0 3.0 0.00 0.00 0.00 21 1024.2
20260904083544 83 0 0.0 3.0 0.00 0.00 0.00 22 1024.2
20260904083058 83 0 0.0 3.0 0.00 0.00 0.00 22 1024.3
20260904082543 82 0 0.0 4.0 0.00 0.00 0.00 22 1024.3
20260904082042 82 0 1.0 4.0 0.00 0.00 0.00 22 1024.1
20260904081601 83 49 0.0 4.0 0.00 0.00 0.00 22 1024.1
20260904081043 82 26 2.0 5.0 0.00 0.00 0.00 22 1024.2
20260904080543 82 7 2.0 5.0 0.00 0.00 0.00 22 1024.0
20260904080105 83 5 1.0 4.0 0.00 0.00 0.00 21 1024.0
20260904075543 82 12 1.0 4.0 0.00 0.00 0.00 22 1024.0
20260904075043 82 12 0.0 3.0 0.00 0.00 0.00 23 1024.0
20260904074622 80 0 0.0 3.0 0.00 0.00 0.00 23 1024.0
20260904074045 80 114 0.0 2.0 0.00 0.00 0.00 24 1024.0
20260904073542 79 0 0.0 3.0 0.00 0.00 0.00 24 1023.9
20260904073055 79 94 0.0 3.0 0.00 0.00 0.00 24 1024.0
20260904072543 79 0 0.0 3.0 0.00 0.00 0.00 24 1024.0
20260904072043 78 182 0.0 2.0 0.00 0.00 0.00 25 1024.0
20260904071602 78 0 0.0 3.0 0.00 0.00 0.00 25 1024.0
20260904071043 78 0 0.0 3.0 0.00 0.00 0.00 25 1024.0
20260904070548 77 0 0.0 2.0 0.00 0.00 0.00 25 1023.9
20260904070059 77 137 0.0 2.0 0.00 0.00 0.00 25 1024.0
20260904065542 77 136 0.0 2.0 0.00 0.00 0.00 25 1023.8
20260904065043 76 0 0.0 2.0 0.00 0.00 0.00 25 1023.8
20260904064557 76 0 0.0 2.0 0.00 0.00 0.00 25 1023.8
20260904064043 76 0 0.0 2.0 0.00 0.00 0.00 26 1023.8
20260904063544 75 0 0.0 2.0 0.00 0.00 0.00 26 1023.7
20260904063112 75 0 0.0 2.0 0.00 0.00 0.00 26 1023.6
20260904062550 75 0 0.0 1.0 0.00 0.00 0.00 26 1023.5
20260904062042 75 0 0.0 1.0 0.00 0.00 0.00 24 1023.5
20260904061602 75 0 0.0 1.0 0.00 0.00 0.00 25 1023.4
20260904061046 75 0 0.0 2.0 0.00 0.00 0.00 24 1023.2
20260904060546 76 0 0.0 2.0 0.00 0.00 0.00 24 1023.2
20260904060112 76 0 0.0 2.0 0.00 0.00 0.00 24 1023.2
20260904055546 76 0 0.0 1.0 0.00 0.00 0.00 24 1023.0
20260904055045 76 0 0.0 0.0 0.00 0.00 0.00 24 1023.1
20260904054608 76 0 0.0 0.0 0.00 0.00 0.00 25 1023.0
20260904054045 75 0 0.0 1.0 0.00 0.00 0.00 24 1023.0
20260904053546 75 0 0.0 2.0 0.00 0.00 0.00 24 1023.0
20260904053101 75 0 0.0 3.0 0.00 0.00 0.00 24 1023.0
20260904052546 76 357 0.0 3.0 0.00 0.00 0.00 24 1023.0
20260904052046 75 358 1.0 3.0 0.00 0.00 0.00 24 1023.2
20260904051558 76 7 1.0 5.0 0.00 0.00 0.00 24 1023.2
20260904051046 76 3 2.0 5.0 0.00 0.00 0.00 24 1023.2
20260904050545 76 9 2.0 4.0 0.00 0.00 0.00 23 1023.2
20260904050056 77 20 0.0 3.0 0.00 0.00 0.00 23 1023.1
20260904045545 77 20 0.0 2.0 0.00 0.00 0.00 23 1023.1
20260904045048 77 0 0.0 2.0 0.00 0.00 0.00 24 1023.1
20260904044607 77 0 0.0 3.0 0.00 0.00 0.00 23 1023.0
20260904044046 78 332 0.0 3.0 0.00 0.00 0.00 22 1023.2
20260904043546 78 346 1.0 3.0 0.00 0.00 0.00 21 1023.1
20260904043100 78 64 0.0 2.0 0.00 0.00 0.00 21 1023.0
20260904042545 79 0 0.0 1.0 0.00 0.00 0.00 21 1023.1
20260904042045 79 0 0.0 1.0 0.00 0.00 0.00 21 1023.1
20260904041554 79 0 0.0 1.0 0.00 0.00 0.00 21 1023.0
20260904041045 79 0 0.0 2.0 0.00 0.00 0.00 21 1023.1
20260904040545 79 0 0.0 2.0 0.00 0.00 0.00 21 1023.2
20260904040058 79 72 0.0 2.0 0.00 0.00 0.00 21 1023.2
20260904035543 79 0 0.0 2.0 0.00 0.00 0.00 20 1023.1
20260904035048 79 0 0.0 2.0 0.00 0.00 0.00 20 1023.1
20260904034609 79 0 0.0 3.0 0.00 0.00 0.00 20 1023.2
20260904034046 80 115 0.0 3.0 0.00 0.00 0.00 20 1023.2
20260904033545 80 0 0.0 3.0 0.00 0.00 0.00 20 1023.2
20260904033056 80 92 0.0 3.0 0.00 0.00 0.00 20 1023.2
20260904032545 80 91 0.0 3.0 0.00 0.00 0.00 20 1023.3
20260904032045 80 50 1.0 3.0 0.00 0.00 0.00 20 1023.4
20260904031555 80 0 0.0 1.0 0.00 0.00 0.00 20 1023.5
20260904031045 80 0 0.0 3.0 0.00 0.00 0.00 21 1023.5
20260904030546 80 0 0.0 3.0 0.00 0.00 0.00 21 1023.5
20260904025550 80 0 0.0 6.0 0.00 0.00 0.00 20 1023.4
20260904025044 80 0 0.0 6.0 0.00 0.00 0.00 21 1023.4
20260904024603 80 59 1.0 6.0 0.00 0.00 0.00 21 1023.4
20260904024045 80 0 0.0 4.0 0.00 0.00 0.00 20 1023.5
20260904023545 80 0 0.0 4.0 0.00 0.00 0.00 20 1023.4
20260904023103 81 0 0.0 3.0 0.00 0.00 0.00 20 1023.4
20260904022544 81 45 1.0 5.0 0.00 0.00 0.00 20 1023.4
20260904022044 81 0 1.0 5.0 0.00 0.00 0.00 20 1023.4
20260904021553 81 0 0.0 3.0 0.00 0.00 0.00 20 1023.4
20260904021043 81 65 0.0 3.0 0.00 0.00 0.00 20 1023.4
20260904020543 81 143 0.0 3.0 0.00 0.00 0.00 20 1023.5
20260904020053 82 0 0.0 3.0 0.00 0.00 0.00 19 1023.5
20260904015542 82 0 0.0 2.0 0.00 0.00 0.00 19 1023.5
20260904015047 82 0 0.0 2.0 0.00 0.00 0.00 19 1023.5
20260904014558 82 0 0.0 2.0 0.00 0.00 0.00 19 1023.5
20260904014046 82 84 0.0 2.0 0.00 0.00 0.00 19 1023.6
20260904013545 82 0 0.0 2.0 0.00 0.00 0.00 19 1023.7
20260904013055 82 0 0.0 1.0 0.00 0.00 0.00 19 1023.8
20260904012545 82 0 0.0 2.0 0.00 0.00 0.00 19 1023.8
20260904012048 82 0 0.0 4.0 0.00 0.00 0.00 19 1023.8
20260904011601 82 48 1.0 4.0 0.00 0.00 0.00 19 1023.8
20260904011046 83 0 0.0 4.0 0.00 0.00 0.00 19 1023.8
20260904010546 83 119 1.0 5.0 0.00 0.00 0.00 19 1023.8
20260904005545 83 61 1.0 5.0 0.00 0.00 0.00 19 1023.8
20260904005047 83 0 1.0 4.0 0.00 0.00 0.00 19 1023.8
20260904004600 83 32 0.0 4.0 0.00 0.00 0.00 19 1023.9
20260904004047 83 31 1.0 4.0 0.00 0.00 0.00 19 1023.9
20260904003545 83 5 0.0 4.0 0.00 0.00 0.00 19 1023.9
20260904003056 83 54 0.0 3.0 0.00 0.00 0.00 20 1023.9
20260904002545 82 0 0.0 2.0 0.00 0.00 0.00 20 1023.9
20260904002046 82 0 0.0 2.0 0.00 0.00 0.00 21 1024.0
20260904001556 82 0 0.0 1.0 0.00 0.00 0.00 23 1024.1
20260904001047 82 0 0.0 1.0 0.00 0.00 0.00 24 1024.0
20260904000548 82 0 0.0 2.0 0.00 0.00 0.00 24 1024.1
20260904000135 82 0 0.0 2.0 0.00 0.00 0.00 23 1024.0
20260903235543 82 0 0.0 1.0 0.00 0.00 0.00 25 1024.1
20260903235045 81 0 0.0 1.0 0.00 0.00 0.00 25 1024.1
20260903234558 81 0 0.0 1.0 0.00 0.00 0.00 24 1024.1
20260903234046 81 300 0.0 1.0 0.00 0.00 0.00 25 1024.1
20260903233545 81 0 0.0 2.0 0.00 0.00 0.00 25 1024.0
20260903233101 82 0 0.0 2.0 0.00 0.00 0.00 25 1024.0
20260903232548 82 300 0.0 1.0 0.00 0.00 0.00 24 1024.0
20260903232046 83 0 0.0 1.0 0.00 0.00 0.00 23 1023.9
20260903231556 83 0 0.0 1.0 0.00 0.00 0.00 24 1023.9
20260903231046 83 0 0.0 1.0 0.00 0.00 0.00 24 1023.8
20260903230546 83 0 0.0 0.0 0.00 0.00 0.00 24 1023.8
20260903225546 84 0 0.0 0.0 0.00 0.00 0.00 23 1023.8
20260903225045 84 0 0.0 0.0 0.00 0.00 0.00 23 1023.8
20260903224606 84 0 0.0 0.0 0.00 0.00 0.00 23 1023.7
20260903224043 84 0 0.0 0.0 0.00 0.00 0.00 22 1023.7
20260903223543 85 0 0.0 0.0 0.00 0.00 0.00 22 1023.7
20260903223054 85 0 0.0 0.0 0.00 0.00 0.00 22 1023.6
20260903222543 85 0 0.0 0.0 0.00 0.00 0.00 21 1023.7
20260903222046 85 0 0.0 0.0 0.00 0.00 0.00 20 1023.6
20260903221559 85 0 0.0 0.0 0.00 0.00 0.00 20 1023.6
20260903221046 86 0 0.0 0.0 0.00 0.00 0.00 20 1023.5
20260903220545 86 0 0.0 0.0 0.00 0.00 0.00 20 1023.5
20260903220111 87 0 0.0 0.0 0.00 0.00 0.00 20 1023.5
20260903215545 87 0 0.0 2.0 0.00 0.00 0.00 19 1023.4
20260903215043 87 0 0.0 2.0 0.00 0.00 0.00 18 1023.4
20260903214559 88 0 0.0 2.0 0.00 0.00 0.00 17 1023.4
20260903214043 88 51 0.0 3.0 0.00 0.00 0.00 17 1023.4
20260903213544 88 51 0.0 3.0 0.00 0.00 0.00 18 1023.3
20260903213102 88 301 0.0 3.0 0.00 0.00 0.00 19 1023.4
20260903212544 88 17 0.0 1.0 0.00 0.00 0.00 18 1023.4
20260903212046 88 0 0.0 1.0 0.00 0.00 0.00 18 1023.4
20260903211618 88 0 0.0 1.0 0.00 0.00 0.00 17 1023.4
20260903211048 88 0 0.0 1.0 0.00 0.00 0.00 18 1023.4
20260903210544 89 0 0.0 1.0 0.00 0.00 0.00 17 1023.4
20260903210108 89 0 0.0 1.0 0.00 0.00 0.00 18 1023.5
20260903205543 89 0 0.0 1.0 0.00 0.00 0.00 17 1023.4
20260903205043 89 0 0.0 2.0 0.00 0.00 0.00 17 1023.3
20260903204559 89 0 0.0 2.0 0.00 0.00 0.00 17 1023.3
20260903204045 89 0 0.0 2.0 0.00 0.00 0.00 17 1023.3
20260903203543 89 0 0.0 2.0 0.00 0.00 0.00 17 1023.2
20260903203056 89 0 0.0 3.0 0.00 0.00 0.00 16 1023.1
20260903202545 89 17 1.0 4.0 0.00 0.00 0.00 17 1023.0
20260903202048 89 5 1.0 4.0 0.00 0.00 0.00 16 1022.9
20260903201557 89 336 1.0 3.0 0.00 0.00 0.00 17 1022.8
20260903201043 90 336 1.0 3.0 0.00 0.00 0.00 17 1022.8
20260903200543 90 336 0.0 1.0 0.00 0.00 0.00 17 1022.7
20260903200054 90 0 0.0 2.0 0.00 0.00 0.00 17 1022.7
20260903195544 90 0 0.0 2.0 0.00 0.00 0.00 17 1022.7
20260903195043 90 0 0.0 3.0 0.00 0.00 0.00 17 1022.7
20260903194559 91 0 0.0 4.0 0.00 0.00 0.00 17 1022.6
20260903194045 91 341 0.0 4.0 0.00 0.00 0.00 17 1022.4
20260903193542 91 3 1.0 4.0 0.00 0.00 0.00 17 1022.4
20260903193056 91 329 0.0 3.0 0.00 0.00 0.00 18 1022.3
20260903192544 91 0 1.0 3.0 0.00 0.00 0.00 18 1022.3
20260903192043 92 288 0.0 3.0 0.00 0.00 0.00 18 1022.2
20260903191555 92 334 1.0 3.0 0.00 0.00 0.00 17 1022.3
20260903191044 93 332 0.0 4.0 0.00 0.00 0.00 17 1022.1
20260903190545 93 0 0.0 4.0 0.00 0.00 0.00 17 1022.1
20260903190105 93 279 0.0 4.0 0.00 0.00 0.00 17 1022.0
20260903185543 94 0 0.0 2.0 0.00 0.00 0.00 18 1021.9
20260903185046 94 0 0.0 2.0 0.00 0.00 0.00 17 1021.9
20260903184604 94 0 0.0 3.0 0.00 0.00 0.00 17 1021.9
20260903184046 94 0 0.0 3.0 0.00 0.00 0.00 17 1021.9
20260903183542 95 304 0.0 3.0 0.00 0.00 0.00 17 1021.9
20260903183057 95 299 0.0 4.0 0.00 0.00 0.00 17 1021.9
20260903182546 96 0 0.0 4.0 0.00 0.00 0.00 16 1021.8
20260903182045 96 223 0.0 4.0 0.00 0.00 0.00 16 1021.8
20260903181553 96 0 1.0 4.0 0.00 0.00 0.00 16 1021.9
20260903181044 96 0 0.0 6.0 0.00 0.00 0.00 16 1022.1
20260903180544 96 0 1.0 6.0 0.00 0.00 0.00 16 1022.0
20260903180112 96 212 1.0 7.0 0.00 0.00 0.00 16 1022.0
20260903175547 96 0 1.0 7.0 0.00 0.00 0.00 15 1022.0
20260903175043 96 205 3.0 9.0 0.00 0.00 0.00 15 1022.0
20260903174611 96 218 1.0 9.0 0.00 0.00 0.00 15 1022.0
20260903174045 96 272 2.0 10.0 0.00 0.00 0.00 15 1022.0
20260903173545 96 207 4.0 10.0 0.00 0.00 0.00 15 1022.0
20260903173111 97 209 3.0 9.0 0.00 0.00 0.00 15 1022.1
20260903172545 97 0 2.0 10.0 0.00 0.00 0.00 15 1022.0
20260903172048 97 201 5.0 10.0 0.00 0.00 0.00 15 1021.9
20260903171605 97 212 0.0 5.0 0.00 0.00 0.00 15 1021.8
20260903171043 97 164 2.0 5.0 0.00 0.00 0.00 14 1022.0
20260903170543 97 205 2.0 9.0 0.00 0.00 0.00 14 1022.0
20260903170113 97 227 1.0 10.0 0.00 0.00 0.00 14 1022.1
20260903165545 97 179 5.0 10.0 0.00 0.00 0.00 14 1022.0
20260903165047 97 0 2.0 8.0 0.00 0.00 0.00 14 1022.0
20260903164605 97 222 4.0 9.0 0.00 0.00 0.00 14 1022.1
20260903164044 97 0 4.0 9.0 0.00 0.00 0.00 14 1022.1
20260903163544 97 245 2.0 10.0 0.00 0.00 0.00 14 1022.1
20260903163110 97 195 4.0 10.0 0.00 0.00 0.00 14 1022.1
20260903162547 97 212 2.0 11.0 0.00 0.00 0.00 14 1022.1
20260903162043 97 224 5.0 11.0 0.00 0.00 0.00 14 1022.1
20260903161600 98 178 3.0 10.0 0.00 0.00 0.00 14 1022.2
20260903161046 97 0 3.0 9.0 0.00 0.00 0.00 14 1022.1
20260903160545 97 186 4.0 9.0 0.00 0.00 0.00 14 1022.1
20260903160106 97 195 2.0 12.0 0.00 0.00 0.00 14 1022.0
20260903155545 97 172 5.0 12.0 0.00 0.00 0.00 14 1022.1
20260903155047 96 197 5.0 11.0 0.00 0.00 0.00 14 1022.1
20260903154606 96 203 4.0 10.0 0.00 0.00 0.00 14 1022.2
20260903154042 97 188 2.0 11.0 0.00 0.00 0.00 14 1022.2
20260903153543 98 198 2.0 11.0 0.00 0.00 0.00 14 1022.1
20260903153059 98 249 4.0 10.0 0.00 0.00 0.00 14 1022.2
20260903152543 98 159 5.0 9.0 0.00 0.00 0.00 14 1022.2
20260903152046 98 45 0.0 13.0 0.00 0.00 0.00 14 1022.2
20260903151603 97 203 5.0 13.0 0.00 0.00 0.00 14 1022.3
20260903151045 97 153 3.0 11.0 0.00 0.00 0.00 14 1022.2
20260903150544 97 197 4.0 11.0 0.00 0.00 0.00 14 1022.4
20260903150114 97 205 4.0 14.0 0.00 0.00 0.00 14 1022.5
20260903145545 97 163 5.0 14.0 0.00 0.00 0.00 13 1022.5
20260903145046 98 245 2.0 8.0 0.00 0.00 0.00 13 1022.6
20260903144559 98 196 3.0 9.0 0.00 0.00 0.00 13 1022.6
20260903144045 99 260 2.0 9.0 0.00 0.00 0.00 14 1022.6
20260903143548 98 245 1.0 12.0 0.00 0.00 0.00 14 1022.6
20260903143105 97 180 2.0 12.0 0.00 0.00 0.00 14 1022.6
20260903142546 98 197 3.0 10.0 0.00 0.00 0.00 14 1022.7
20260903142046 97 217 2.0 10.0 0.00 0.00 0.00 14 1022.7
20260903141604 98 24 3.0 11.0 0.00 0.00 0.00 14 1022.7
20260903141042 98 0 3.0 11.0 0.00 0.00 0.00 14 1022.8
20260903140542 99 6 2.0 10.0 0.00 0.00 0.00 14 1022.8
20260903140101 98 267 1.0 9.0 0.00 0.00 0.00 14 1022.8
20260903135546 97 186 2.0 9.0 0.00 0.00 0.00 14 1022.9
20260903135045 97 359 3.0 7.0 0.00 0.00 0.00 15 1022.9
20260903134601 98 10 1.0 7.0 0.00 0.00 0.00 15 1023.1
20260903134045 97 255 2.0 7.0 0.00 0.00 0.00 15 1023.2
20260903133549 98 164 1.0 12.0 0.00 0.00 0.00 15 1023.2